Date String (YYYY-MM-DD hh:mm:ss) UTC,Instrument flags,Ambient pressure (hPa),Sample flow (lpm),Bypass flow (lpm),Sample temperature (°C),Ambient temperature (°C),ASC tube jacket temperature (°C),LED temperature (°C),Box temperature (°C),Sample RH (%),Span deviation,Mass concentration (μg/m³),Mass concentration (μg/m³),Mass concentration (μg/m³)
DateTimeUTC,F1_M11,P_M11,Q1_M11,Q2_M11,T1_M11,T2_M11,T3_M11,T4_M11,T5_M11,U1_M11,ZSPAN_M11,X0_M11,X2_M11,X1_M11
2021-08-25 06:00:00,,0829.9,5.00,0.00,29.6,28.5,00.0,38.6,31.3,16.0,0002.5,0013.88,0005.13,0004.33
2021-08-25 06:01:00,,0829.9,4.99,0.00,29.6,28.6,00.0,38.6,31.4,15.8,0002.3,0013.70,0005.12,0004.31
2021-08-25 06:02:00,,0829.8,5.00,0.00,29.6,28.7,00.0,38.6,31.4,15.4,0002.2,0013.30,0005.14,0004.30
2021-08-25 06:03:00,,0829.8,4.99,0.00,29.7,28.7,00.0,38.6,31.5,15.3,0001.9,0012.37,0005.11,0004.29
2021-08-25 06:04:00,,0829.9,5.01,0.00,29.7,28.8,00.0,38.6,31.5,15.8,0001.8,0011.65,0005.07,0004.29
2021-08-25 06:05:00,,0829.9,5.01,0.00,29.7,28.9,00.0,38.7,31.6,15.9,0002.0,0011.39,0005.01,0004.29
2021-08-25 06:06:00,,0829.8,4.99,0.00,29.8,28.9,00.0,38.7,31.6,16.0,0001.5,0010.95,0005.03,0004.29
2021-08-25 06:07:00,,0829.9,5.00,0.00,29.8,28.9,00.0,38.7,31.6,15.7,0001.2,0011.30,0005.07,0004.30
2021-08-25 06:08:00,,0829.9,5.00,0.00,29.7,27.4,00.0,38.7,31.2,15.5,0001.6,0011.55,0005.10,0004.32
2021-08-25 06:09:00,,0829.9,5.01,0.00,29.6,26.3,00.0,38.7,30.9,15.7,0002.1,0012.42,0005.11,0004.32
2021-08-25 06:10:00,,0829.8,5.00,0.00,29.5,26.4,00.0,38.7,31.0,15.7,0002.8,0011.87,0005.11,0004.32
2021-08-25 06:11:00,,0830.0,4.99,0.00,29.4,26.8,00.0,38.6,31.0,15.9,0002.8,0012.84,0005.13,0004.33
2021-08-25 06:12:00,,0829.9,5.01,0.00,29.4,27.2,00.0,38.6,31.0,15.9,0002.8,0013.65,0005.15,0004.34
2021-08-25 06:13:00,,0830.0,4.98,0.00,29.4,27.5,00.0,38.6,31.1,16.2,0002.8,0015.06,0005.13,0004.34
2021-08-25 06:14:00,,0830.1,5.01,0.00,29.4,27.8,00.0,38.6,31.2,17.0,0002.5,0015.36,0005.15,0004.34
2021-08-25 06:15:00,,0830.1,5.00,0.00,29.5,28.0,00.0,38.6,31.2,16.8,0002.2,0016.24,0005.14,0004.34
2021-08-25 06:16:00,,0830.1,5.00,0.00,29.5,28.2,00.0,38.6,31.3,17.0,0001.9,0016.36,0005.15,0004.35
2021-08-25 06:17:00,,0830.1,5.00,0.00,29.5,28.3,00.0,38.6,31.3,16.7,0002.1,0016.69,0005.18,0004.35
2021-08-25 06:18:00,,0830.1,5.00,0.00,29.5,28.4,00.0,38.6,31.3,16.8,0002.3,0016.55,0005.19,0004.36
2021-08-25 06:19:00,,0830.1,5.00,0.00,29.5,28.5,00.0,38.6,31.4,16.7,0002.2,0016.86,0005.18,0004.36
2021-08-25 06:20:00,,0830.1,5.00,0.00,29.6,28.5,00.0,38.6,31.4,16.4,0002.1,0015.55,0005.17,0004.37
2021-08-25 06:21:00,,0830.1,5.01,0.00,29.6,28.6,00.0,38.6,31.5,16.0,0001.8,0016.10,0005.18,0004.39
2021-08-25 06:22:00,,0830.1,4.98,0.00,29.6,28.6,00.0,38.7,31.5,15.9,0001.7,0015.93,0005.22,0004.39
2021-08-25 06:23:00,,0830.1,5.01,0.00,29.6,28.7,00.0,38.7,31.5,15.5,0001.8,0015.97,0005.28,0004.39
2021-08-25 06:24:00,,0830.1,4.99,0.00,29.7,28.8,00.0,38.7,31.5,15.4,0001.9,0014.97,0005.29,0004.39
2021-08-25 06:25:00,,0830.1,5.01,0.00,29.7,28.8,00.0,38.7,31.5,15.4,0001.8,0015.37,0005.26,0004.39
2021-08-25 06:26:00,,0830.1,4.99,0.00,29.7,28.8,00.0,38.7,31.6,15.5,0002.0,0014.65,0005.27,0004.39
2021-08-25 06:27:00,,0830.1,5.00,0.00,29.7,28.9,00.0,38.7,31.6,15.6,0002.3,0014.86,0005.33,0004.39
2021-08-25 06:28:00,,0830.1,4.99,0.00,29.7,27.8,00.0,38.7,31.3,15.3,0002.0,0014.97,0005.33,0004.39
2021-08-25 06:29:00,,0830.1,5.02,0.00,29.5,26.2,00.0,38.7,30.8,15.4,0002.0,0015.13,0005.30,0004.38
2021-08-25 06:30:00,,0830.1,4.99,0.00,29.5,26.2,00.0,38.7,30.8,15.4,0001.9,0014.84,0005.26,0004.38
2021-08-25 06:31:00,,0830.1,5.01,0.00,29.4,26.6,00.0,38.6,30.8,15.5,0001.6,0014.56,0005.24,0004.38
2021-08-25 06:32:00,,0830.1,4.99,0.00,29.4,27.0,00.0,38.6,30.9,15.4,0001.6,0013.82,0005.21,0004.36
2021-08-25 06:33:00,,0830.2,5.01,0.00,29.4,27.4,00.0,38.6,31.0,15.7,0001.5,0013.31,0005.14,0004.36
2021-08-25 06:34:00,,0830.2,4.99,0.00,29.4,27.7,00.0,38.6,31.1,15.7,0001.5,0013.03,0005.08,0004.38
2021-08-25 06:35:00,,0830.1,5.01,0.00,29.4,27.9,00.0,38.5,31.1,15.6,0001.2,0013.31,0005.14,0004.42
2021-08-25 06:36:00,,0830.2,4.99,0.00,29.4,28.1,00.0,38.6,31.2,15.6,0001.1,0012.91,0005.20,0004.44
2021-08-25 06:37:00,,0830.2,4.99,0.00,29.5,28.3,00.0,38.6,31.3,15.5,0001.3,0013.63,0005.25,0004.49
2021-08-25 06:38:00,,0830.2,5.00,0.00,29.5,28.4,00.0,38.6,31.3,15.5,0001.3,0013.36,0005.22,0004.52
2021-08-25 06:39:00,,0830.3,5.01,0.00,29.5,28.5,00.0,38.6,31.3,15.5,0001.5,0014.17,0005.26,0004.55
2021-08-25 06:40:00,,0830.2,4.99,0.00,29.6,28.6,00.0,38.6,31.4,15.5,0002.2,0015.21,0005.33,0004.59
2021-08-25 06:41:00,,0830.2,5.00,0.00,29.6,28.7,00.0,38.6,31.4,15.5,0002.4,0015.74,0005.40,0004.63
2021-08-25 06:42:00,,0830.3,5.00,0.00,29.6,28.7,00.0,38.6,31.5,15.4,0002.6,0015.91,0005.46,0004.67
2021-08-25 06:43:00,,0830.3,5.00,0.00,29.7,28.8,00.0,38.7,31.5,15.4,0002.3,0016.57,0005.51,0004.70
2021-08-25 06:44:00,,0830.2,5.01,0.00,29.7,28.9,00.0,38.7,31.5,15.2,0002.4,0017.14,0005.58,0004.73
2021-08-25 06:45:00,,0830.2,4.99,0.00,29.7,28.9,00.0,38.7,31.6,15.3,0002.5,0017.70,0005.64,0004.77
2021-08-25 06:46:00,,0830.2,5.01,0.00,29.8,28.9,00.0,38.7,31.6,15.2,0002.5,0017.07,0005.65,0004.79
2021-08-25 06:47:00,,0830.3,5.01,0.00,29.8,28.9,00.0,38.7,31.6,15.2,0002.8,0016.81,0005.69,0004.84
2021-08-25 06:48:00,,0830.3,4.99,0.00,29.8,27.4,00.0,38.7,31.2,15.3,0002.8,0016.34,0005.74,0004.89
2021-08-25 06:49:00,,0830.2,5.00,0.00,29.6,26.3,00.0,38.7,31.0,15.5,0002.5,0017.00,0005.81,0004.93
2021-08-25 06:50:00,,0830.2,5.00,0.00,29.5,26.5,00.0,38.7,31.0,15.7,0002.5,0015.93,0005.84,0004.99
2021-08-25 06:51:00,,0830.2,5.00,0.00,29.5,26.9,00.0,38.7,31.0,16.0,0002.2,0015.01,0005.92,0005.07
2021-08-25 06:52:00,,0830.2,4.98,0.00,29.5,27.2,00.0,38.6,31.1,15.9,0002.0,0014.15,0005.97,0005.13
2021-08-25 06:53:00,,0830.2,5.01,0.00,29.5,27.6,00.0,38.6,31.1,15.9,0001.6,0015.38,0006.05,0005.20
2021-08-25 06:54:00,,0830.2,5.00,0.00,29.5,27.8,00.0,38.6,31.2,16.1,0001.9,0014.94,0006.12,0005.28
2021-08-25 06:55:00,,0830.2,5.00,0.00,29.5,28.0,00.0,38.6,31.2,15.9,0001.8,0014.26,0006.17,0005.35
2021-08-25 06:56:00,,0830.2,5.00,0.00,29.5,28.2,00.0,38.6,31.3,15.6,0001.8,0013.23,0006.14,0005.38
2021-08-25 06:57:00,,0830.3,5.01,0.00,29.5,28.3,00.0,38.6,31.3,15.4,0001.7,0013.28,0006.12,0005.37
2021-08-25 06:58:00,,0830.3,5.00,0.00,29.6,28.4,00.0,38.6,31.3,15.3,0001.4,0013.19,0006.11,0005.37
2021-08-25 06:59:00,,0830.3,4.99,0.00,29.6,28.5,00.0,38.6,31.4,15.3,0001.4,0013.15,0006.07,0005.35
